Погода в Торуне

Польша     53°00′36″N   18°36′25″E
темп.,
°C
ветер,
м/с
пор.,
м/с
влажн.,
%
обл.,
%
осадки,
мм/ч
давл.,
гПа
погр.,
м
27 февраля, сб
сб2701:00+3зсз4129110 0.0 1026542
04:00+3зсз5119366 0.0 1026455
07:00+3зсз4109162 0.0 1029392
10:00+5сз488518 0.0 1030477
13:00+7ссз58709 0.0 10321109
16:00+6ссз377225 0.0 1032760
19:00+2сз388412 0.0 1034168
22:00+1зсз37900 0.0 1034165
28 февраля, вс
вс2801:000з25908 0.0 1035126
04:00+1з398782 0.0 1033258
07:00+1з489646 0.0 1033272
10:00+2з589477 0.0 1032452
13:00+4зсз589088 0.0 1032640
16:00+4зсз3790100 0.0 1031418
19:00+2зсз379577 0.0 1033166
22:00+1сз35960 0.0 1033136
1 марта, пн
пн101:000сз22940 0.0 103536
04:000зсз22920 0.0 103423
07:000з22910 0.0 103528
10:00+6з23750 0.0 1034260
13:00+9зюз35700 0.0 1034449
16:00+8зюз26780 0.0 1033254
19:00+4зюз36890 0.0 1033121
22:00+3зюз38920 0.0 1033167
2 марта, вт
вт201:00+2з38930 0.0 1033160
04:00+1з25940 0.0 1032123
07:00+1з35950 0.0 1032123
10:00+6з35820 0.0 1033300
13:00+9зсз35700 0.0 1033568
16:00+9з25760 0.0 1031269
19:00+5з23860 0.0 103144
22:00+4зсз23900 0.0 103235
3 марта, ср
ср301:00+2сз22920 0.0 103222
04:00+1зсз12930 0.0 103122
07:00+1зсз11940 0.0 103022
10:00+6зюз11750 0.0 1030260
13:00+10юз12616 0.0 1029498
16:00+10ююз127013 0.0 102727
19:00+6ююз238222 0.0 102526
22:00+5юз23850 0.0 102424